Location: Bassano
(45.7667°N, 11.7333°E)
Time: 11:54:01
(UTC+00:00)

Cosmos 2263 Rocket - Pass Details

Date: 07 June 2020
Orbit: 825 x 847 km, 71.0° (Epoch: 01 July)

Event Time Altitude Azimuth Distance (km) Brightness Sun altitude
Rises 01:03:34 0° 331° (NNW) 3,389 5.8 -16.9°
Reaches altitude 10° 01:06:02 10° 328° (NNW) 2,447 5.0 -16.7°
Maximum altitude 01:11:34 64° 249° (WSW) 913 2.1 -16.3°
Enters shadow 01:15:54 17° 171° (S) 1,992 3.7 -15.9°
